When you browse on this site, cookies collect data to enhance your experience and personalize the content and advertising you see.
Visit our Privacy Policy to learn more. By continuing to use the site, you agree to this use of cookies and data.
  • In Slovakia
  • List of Countries
  • For 7 days
  • Water Temperature
  • Weather Map
  • Weather Widgets
  • user-avatar
    Login

    Hourly Weather La Massana

    Today, 17 November, Sunday

    Time Temperature Precipitation Wind Pressure Humidity
    00:00 -6°C° 0 mm 2 mps 601 mmHg 91%
    01:00 -6°C° 0.7 mm 2 mps 601 mmHg 92%
    02:00 -4°C° 0.7 mm 1 mps 601 mmHg 92%
    03:00 -4°C° 0.7 mm 1 mps 600 mmHg 93%
    04:00 -4°C° 0.3 mm 1 mps 600 mmHg 93%
    05:00 -4°C° 0.3 mm 1 mps 600 mmHg 93%
    06:00 -7°C° 0.3 mm 2 mps 600 mmHg 93%
    07:00 -3°C° 0 mm 1 mps 600 mmHg 89%
    08:00 -2°C° 0 mm 1 mps 601 mmHg 84%
    09:00 -1°C° 0 mm 1 mps 601 mmHg 80%
    10:00 0°C° 0 mm 1 mps 602 mmHg 78%
    11:00 +1°C° 0 mm 1 mps 602 mmHg 76%
    12:00 +2°C° 0 mm 1 mps 602 mmHg 73%
    13:00 +2°C° 0 mm 1 mps 602 mmHg 77%
    14:00 +1°C° 0 mm 1 mps 601 mmHg 80%
    15:00 +1°C° 0 mm 1 mps 601 mmHg 83%
    16:00 0°C° 0.1 mm 1 mps 601 mmHg 87%
    17:00 -1°C° 0.1 mm 1 mps 600 mmHg 91%
    18:00 -4°C° 0.1 mm 0 mps 600 mmHg 94%
    19:00 -4°C° 0.2 mm 0 mps 600 mmHg 95%
    20:00 -3°C° 0.2 mm 1 mps 600 mmHg 95%
    21:00 -3°C° 0.2 mm 1 mps 600 mmHg 96%
    22:00 -3°C° 0.4 mm 1 mps 600 mmHg 96%
    23:00 -4°C° 0.4 mm 0 mps 600 mmHg 96%

    Tomorrow, 18 November, Monday

    Time Temperature Precipitation Wind Pressure Humidity
    00:00 -4°C° 0.4 mm 0 mps 600 mmHg 96%
    01:00 -3°C° 0.3 mm 1 mps 600 mmHg 96%
    02:00 -3°C° 0.3 mm 1 mps 600 mmHg 95%
    03:00 -3°C° 0.3 mm 1 mps 600 mmHg 95%
    04:00 -5°C° 0.5 mm 2 mps 600 mmHg 95%
    05:00 -5°C° 0.5 mm 2 mps 601 mmHg 95%
    06:00 -6°C° 0.5 mm 2 mps 601 mmHg 95%
    07:00 -5°C° 0.4 mm 2 mps 602 mmHg 92%
    08:00 -4°C° 0.4 mm 2 mps 603 mmHg 89%
    09:00 -3°C° 0.4 mm 2 mps 603 mmHg 87%
    10:00 -3°C° 0.2 mm 2 mps 604 mmHg 85%
    11:00 -2°C° 0.2 mm 2 mps 604 mmHg 83%
    12:00 -2°C° 0.2 mm 2 mps 604 mmHg 82%
    13:00 -2°C° 0 mm 2 mps 604 mmHg 83%
    14:00 -3°C° 0 mm 2 mps 604 mmHg 83%
    15:00 -3°C° 0 mm 2 mps 603 mmHg 84%
    16:00 -5°C° 0 mm 2 mps 603 mmHg 86%
    17:00 -7°C° 0 mm 2 mps 602 mmHg 88%
    18:00 -8°C° 0 mm 2 mps 602 mmHg 90%
    19:00 -8°C° 0 mm 2 mps 602 mmHg 90%
    20:00 -8°C° 0 mm 2 mps 603 mmHg 90%
    21:00 -8°C° 0 mm 2 mps 603 mmHg 91%
    22:00 -8°C° 0 mm 2 mps 603 mmHg 84%
    23:00 -9°C° 0 mm 2 mps 603 mmHg 78%

    Day after tomorrow, 19 November, Tuesday

    Time Temperature Precipitation Wind Pressure Humidity
    00:00 -9°C° 0 mm 2 mps 602 mmHg 71%
    01:00 -9°C° 0 mm 2 mps 602 mmHg 70%
    02:00 -9°C° 0 mm 2 mps 602 mmHg 70%
    03:00 -9°C° 0 mm 2 mps 602 mmHg 69%
    04:00 -9°C° 0 mm 2 mps 603 mmHg 68%
    05:00 -9°C° 0 mm 2 mps 603 mmHg 67%
    06:00 -9°C° 0 mm 2 mps 603 mmHg 66%
    07:00 -6°C° 0 mm 1 mps 604 mmHg 65%
    08:00 -3°C° 0 mm 1 mps 605 mmHg 64%
    09:00 -1°C° 0 mm 1 mps 607 mmHg 63%
    10:00 0°C° 0 mm 1 mps 607 mmHg 64%
    11:00 +1°C° 0 mm 1 mps 607 mmHg 65%
    12:00 +2°C° 0 mm 1 mps 607 mmHg 66%
    13:00 +1°C° 0 mm 1 mps 607 mmHg 68%
    14:00 +1°C° 0 mm 1 mps 606 mmHg 70%
    15:00 +1°C° 0 mm 1 mps 606 mmHg 72%
    16:00 -1°C° 0 mm 1 mps 605 mmHg 71%
    17:00 -3°C° 0 mm 1 mps 605 mmHg 71%
    18:00 -4°C° 0 mm 1 mps 604 mmHg 70%
    19:00 -6°C° 0 mm 1 mps 604 mmHg 69%
    20:00 -6°C° 0 mm 1 mps 604 mmHg 68%
    21:00 -7°C° 0 mm 2 mps 604 mmHg 68%
    22:00 -7°C° 0 mm 2 mps 604 mmHg 67%
    23:00 -7°C° 0 mm 2 mps 604 mmHg 66%

    20 November, Wednesday

    Time Temperature Precipitation Wind Pressure Humidity
    00:00 -7°C° 0 mm 2 mps 603 mmHg 66%
    01:00 -7°C° 0 mm 2 mps 603 mmHg 64%
    02:00 -7°C° 0 mm 2 mps 603 mmHg 63%
    03:00 -7°C° 0 mm 2 mps 603 mmHg 62%
    04:00 -7°C° 0 mm 2 mps 602 mmHg 64%
    05:00 -7°C° 0 mm 2 mps 602 mmHg 65%
    06:00 -8°C° 0 mm 2 mps 602 mmHg 66%
    07:00 -6°C° 0 mm 2 mps 602 mmHg 67%
    08:00 -4°C° 0 mm 2 mps 603 mmHg 68%
    09:00 -3°C° 0 mm 2 mps 604 mmHg 69%
    10:00 -2°C° 0 mm 3 mps 604 mmHg 70%
    11:00 -1°C° 0 mm 3 mps 604 mmHg 71%
    12:00 0°C° 0 mm 3 mps 604 mmHg 71%
    13:00 -1°C° 0 mm 3 mps 604 mmHg 74%
    14:00 -1°C° 0 mm 3 mps 603 mmHg 76%
    15:00 -1°C° 0 mm 3 mps 603 mmHg 79%
    16:00 -2°C° 0 mm 3 mps 602 mmHg 83%
    17:00 -4°C° 0 mm 3 mps 602 mmHg 88%
    18:00 -5°C° 0 mm 3 mps 601 mmHg 92%
    19:00 -5°C° 0.1 mm 3 mps 601 mmHg 93%
    20:00 -5°C° 0.1 mm 3 mps 601 mmHg 94%
    21:00 -5°C° 0.1 mm 3 mps 601 mmHg 94%
    22:00 -5°C° 0.3 mm 3 mps 601 mmHg 95%
    23:00 -5°C° 0.3 mm 3 mps 601 mmHg 95%

    21 November, Thursday

    Time Temperature Precipitation Wind Pressure Humidity
    00:00 -4°C° 0.3 mm 3 mps 601 mmHg 96%
    01:00 -4°C° 0.1 mm 3 mps 601 mmHg 95%
    02:00 -4°C° 0.1 mm 3 mps 600 mmHg 95%
    03:00 -4°C° 0.1 mm 3 mps 600 mmHg 95%
    04:00 -4°C° 0.4 mm 3 mps 600 mmHg 95%
    05:00 -4°C° 0.4 mm 3 mps 600 mmHg 95%
    06:00 -4°C° 0.4 mm 3 mps 599 mmHg 95%
    07:00 -4°C° 0.9 mm 3 mps 600 mmHg 95%
    08:00 -2°C° 0.9 mm 3 mps 600 mmHg 95%
    09:00 -2°C° 0.9 mm 3 mps 600 mmHg 95%
    10:00 -2°C° 0.5 mm 3 mps 600 mmHg 95%
    11:00 -1°C° 0.5 mm 3 mps 600 mmHg 95%
    12:00 -1°C° 0.5 mm 3 mps 600 mmHg 95%
    13:00 -1°C° 0.3 mm 3 mps 600 mmHg 95%
    14:00 -1°C° 0.3 mm 3 mps 600 mmHg 95%
    15:00 -1°C° 0.3 mm 3 mps 600 mmHg 95%
    16:00 -2°C° 0.1 mm 3 mps 600 mmHg 95%
    17:00 -2°C° 0.1 mm 3 mps 600 mmHg 95%
    18:00 -2°C° 0.1 mm 3 mps 600 mmHg 95%
    19:00 -2°C° 0.2 mm 3 mps 600 mmHg 96%
    20:00 -2°C° 0.2 mm 3 mps 600 mmHg 96%
    21:00 -2°C° 0.2 mm 3 mps 600 mmHg 96%
    22:00 -2°C° 0.4 mm 3 mps 600 mmHg 96%
    23:00 -2°C° 0.4 mm 3 mps 600 mmHg 96%

    22 November, Friday

    Time Temperature Precipitation Wind Pressure Humidity
    00:00 -2°C° 0.4 mm 3 mps 600 mmHg 97%
    01:00 -2°C° 0.6 mm 3 mps 600 mmHg 97%
    02:00 -2°C° 0.6 mm 3 mps 599 mmHg 96%
    03:00 -2°C° 0.6 mm 3 mps 599 mmHg 96%
    04:00 -2°C° 0.3 mm 3 mps 599 mmHg 96%
    05:00 -2°C° 0.3 mm 2 mps 599 mmHg 97%
    06:00 -2°C° 0.3 mm 2 mps 600 mmHg 97%
    07:00 -2°C° 0.1 mm 2 mps 600 mmHg 96%
    08:00 -1°C° 0.1 mm 2 mps 600 mmHg 95%
    09:00 +1°C° 0.1 mm 1 mps 601 mmHg 94%
    10:00 +1°C° 0 mm 1 mps 601 mmHg 93%
    11:00 +2°C° 0 mm 1 mps 601 mmHg 92%
    12:00 +2°C° 0 mm 1 mps 601 mmHg 91%
    13:00 +2°C° 0 mm 1 mps 601 mmHg 91%
    14:00 +2°C° 0 mm 1 mps 601 mmHg 91%
    15:00 0°C° 0 mm 0 mps 601 mmHg 91%
    16:00 0°C° 0 mm 1 mps 600 mmHg 92%
    17:00 -1°C° 0 mm 1 mps 600 mmHg 93%
    18:00 -2°C° 0 mm 1 mps 600 mmHg 94%
    19:00 -2°C° 0 mm 1 mps 601 mmHg 94%
    20:00 -2°C° 0 mm 1 mps 601 mmHg 94%
    21:00 -2°C° 0 mm 1 mps 601 mmHg 93%
    22:00 -3°C° 0 mm 1 mps 601 mmHg 93%
    23:00 -3°C° 0 mm 1 mps 601 mmHg 93%
    Show more